Time,TemperatureF,DewpointF,PressureIn,WindDirection,WindDirectionDegrees,WindSpeedMPH,WindSpeedGustMPH,Humidity,HourlyPrecipIn,Conditions,Clouds,dailyrainin,SoftwareType,DateUTC
2013-01-08 00:11:00,17.0,14.0,30.25,SSW,197,6.0,10.0,89,0.00,,,0.00,weatherlink.com 1.10,2013-01-08 05:11:00,
2013-01-08 00:25:00,17.3,15.0,30.25,South,169,0.0,11.0,89,0.00,,,0.00,weatherlink.com 1.10,2013-01-08 05:25:00,
2013-01-08 00:40:00,17.4,15.0,30.25,SW,234,3.0,13.0,89,0.00,,,0.00,weatherlink.com 1.10,2013-01-08 05:40:00,
2013-01-08 00:55:00,17.6,15.0,30.24,SSW,205,6.0,13.0,89,0.00,,,0.00,weatherlink.com 1.10,2013-01-08 05:55:00,
2013-01-08 01:10:00,17.9,16.0,30.24,SW,235,1.0,11.0,90,0.00,,,0.00,weatherlink.com 1.10,2013-01-08 06:10:00,
2013-01-08 01:26:00,18.1,16.0,30.23,SW,227,4.0,13.0,90,0.00,,,0.00,weatherlink.com 1.10,2013-01-08 06:26:00,
2013-01-08 01:41:00,18.3,16.0,30.23,SW,215,3.0,10.0,90,0.00,,,0.00,weatherlink.com 1.10,2013-01-08 06:41:00,
2013-01-08 01:56:00,18.8,17.0,30.23,SSW,194,7.0,11.0,91,0.00,,,0.00,weatherlink.com 1.10,2013-01-08 06:56:00,
2013-01-08 02:11:00,19.3,17.0,30.23,SSW,207,3.0,10.0,91,0.00,,,0.00,weatherlink.com 1.10,2013-01-08 07:11:00,
2013-01-08 02:26:00,19.7,18.0,30.22,SSW,194,3.0,11.0,91,0.00,,,0.00,weatherlink.com 1.10,2013-01-08 07:26:00,
2013-01-08 02:41:00,20.0,18.0,30.22,SE,139,1.0,10.0,91,0.00,,,0.00,weatherlink.com 1.10,2013-01-08 07:41:00,
2013-01-08 02:56:00,20.3,18.0,30.21,South,186,3.0,11.0,91,0.00,,,0.00,weatherlink.com 1.10,2013-01-08 07:56:00,
2013-01-08 03:11:00,20.6,18.0,30.21,SSW,206,3.0,8.0,91,0.00,,,0.00,weatherlink.com 1.10,2013-01-08 08:11:00,
2013-01-08 03:26:00,20.9,19.0,30.20,NW,307,3.0,8.0,91,0.00,,,0.00,weatherlink.com 1.10,2013-01-08 08:26:00,
2013-01-08 03:41:00,20.8,19.0,30.20,SW,231,7.0,9.0,91,0.00,,,0.00,weatherlink.com 1.10,2013-01-08 08:41:00,
2013-01-08 03:56:00,20.9,19.0,30.20,SSE,152,2.0,6.0,91,0.00,,,0.00,weatherlink.com 1.10,2013-01-08 08:56:00,
2013-01-08 04:11:00,20.9,19.0,30.21,NW,321,0.0,7.0,91,0.00,,,0.00,weatherlink.com 1.10,2013-01-08 09:11:00,
2013-01-08 04:26:00,20.5,18.0,30.21,South,175,0.0,5.0,91,0.00,,,0.00,weatherlink.com 1.10,2013-01-08 09:26:00,
2013-01-08 04:41:00,20.3,18.0,30.21,West,269,2.0,6.0,91,0.00,,,0.00,weatherlink.com 1.10,2013-01-08 09:41:00,
2013-01-08 04:56:00,20.0,18.0,30.21,SW,226,4.0,8.0,91,0.00,,,0.00,weatherlink.com 1.10,2013-01-08 09:56:00,
2013-01-08 05:11:00,19.7,18.0,30.21,WSW,241,6.0,9.0,91,0.00,,,0.00,weatherlink.com 1.10,2013-01-08 10:11:00,
2013-01-08 05:26:00,19.6,17.0,30.20,South,173,0.0,8.0,91,0.00,,,0.00,weatherlink.com 1.10,2013-01-08 10:26:00,
2013-01-08 05:41:00,19.5,17.0,30.20,WSW,250,0.0,10.0,91,0.00,,,0.00,weatherlink.com 1.10,2013-01-08 10:41:00,
2013-01-08 05:56:00,19.5,17.0,30.22,West,267,2.0,5.0,91,0.00,,,0.00,weatherlink.com 1.10,2013-01-08 10:56:00,
2013-01-08 06:11:00,19.7,18.0,30.22,WSW,257,2.0,5.0,91,0.00,,,0.00,weatherlink.com 1.10,2013-01-08 11:11:00,
2013-01-08 06:26:00,19.8,18.0,30.22,NW,311,2.0,8.0,91,0.00,,,0.00,weatherlink.com 1.10,2013-01-08 11:26:00,
2013-01-08 06:41:00,20.0,18.0,30.23,NE,39,0.0,6.0,91,0.00,,,0.00,weatherlink.com 1.10,2013-01-08 11:41:00,
2013-01-08 06:56:00,20.2,18.0,30.23,West,261,0.0,5.0,91,0.00,,,0.00,weatherlink.com 1.10,2013-01-08 11:56:00,
2013-01-08 07:11:00,20.5,18.0,30.24,WSW,254,0.0,3.0,91,0.00,,,0.00,weatherlink.com 1.10,2013-01-08 12:11:00,
2013-01-08 07:26:00,20.8,19.0,30.25,North,355,6.0,8.0,92,0.00,,,0.00,weatherlink.com 1.10,2013-01-08 12:26:00,
2013-01-08 07:41:00,21.2,19.0,30.25,East,86,2.0,9.0,90,0.00,,,0.00,weatherlink.com 1.10,2013-01-08 12:41:00,
2013-01-08 07:56:00,21.3,19.0,30.26,WNW,288,2.0,7.0,90,0.00,,,0.00,weatherlink.com 1.10,2013-01-08 12:56:00,
2013-01-08 08:11:00,21.4,19.0,30.26,SSW,208,0.0,5.0,91,0.00,,,0.00,weatherlink.com 1.10,2013-01-08 13:11:00,
2013-01-08 08:26:00,21.6,19.0,30.26,WNW,297,0.0,6.0,91,0.00,,,0.00,weatherlink.com 1.10,2013-01-08 13:26:00,
2013-01-08 08:41:00,22.0,20.0,30.25,West,270,0.0,7.0,91,0.00,,,0.00,weatherlink.com 1.10,2013-01-08 13:41:00,
2013-01-08 08:56:00,22.6,20.0,30.26,WNW,296,1.0,8.0,90,0.00,,,0.00,weatherlink.com 1.10,2013-01-08 13:56:00,
2013-01-08 09:12:00,22.7,20.0,30.26,NNW,335,1.0,5.0,90,0.00,,,0.00,weatherlink.com 1.10,2013-01-08 14:12:00,
2013-01-08 09:27:00,23.3,21.0,30.26,ENE,67,0.0,5.0,90,0.00,,,0.00,weatherlink.com 1.10,2013-01-08 14:27:00,
2013-01-08 09:42:00,23.8,21.0,30.26,West,267,1.0,6.0,90,0.00,,,0.00,weatherlink.com 1.10,2013-01-08 14:42:00,
2013-01-08 09:57:00,24.6,22.0,30.26,South,186,0.0,4.0,88,0.00,,,0.00,weatherlink.com 1.10,2013-01-08 14:57:00,
2013-01-08 10:12:00,24.8,22.0,30.26,East,87,3.0,5.0,88,0.00,,,0.00,weatherlink.com 1.10,2013-01-08 15:12:00,
2013-01-08 10:27:00,25.3,22.0,30.26,SSE,150,0.0,5.0,87,0.00,,,0.00,weatherlink.com 1.10,2013-01-08 15:27:00,
2013-01-08 10:42:00,25.6,23.0,30.26,WNW,286,2.0,10.0,90,0.00,,,0.00,weatherlink.com 1.10,2013-01-08 15:42:00,
2013-01-08 10:57:00,26.2,24.0,30.26,NW,326,2.0,4.0,90,0.00,,,0.00,weatherlink.com 1.10,2013-01-08 15:57:00,
2013-01-08 11:12:00,26.3,24.0,30.26,NNW,335,1.0,10.0,90,0.00,,,0.00,weatherlink.com 1.10,2013-01-08 16:12:00,
2013-01-08 11:27:00,26.3,24.0,30.25,NW,312,4.0,8.0,90,0.00,,,0.00,weatherlink.com 1.10,2013-01-08 16:27:00,
2013-01-08 11:42:00,26.2,24.0,30.26,NNW,335,3.0,9.0,90,0.00,,,0.00,weatherlink.com 1.10,2013-01-08 16:42:00,
2013-01-08 11:57:00,26.6,24.0,30.25,NNW,329,1.0,10.0,90,0.00,,,0.00,weatherlink.com 1.10,2013-01-08 16:57:00,
2013-01-08 12:12:00,26.9,24.0,30.25,NE,51,1.0,4.0,89,0.00,,,0.00,weatherlink.com 1.10,2013-01-08 17:12:00,
2013-01-08 12:27:00,27.0,25.0,30.25,NNW,332,4.0,6.0,91,0.00,,,0.00,weatherlink.com 1.10,2013-01-08 17:27:00,
2013-01-08 12:42:00,27.5,25.0,30.25,North,10,0.0,7.0,91,0.00,,,0.00,weatherlink.com 1.10,2013-01-08 17:42:00,
2013-01-08 12:57:00,28.0,26.0,30.25,WNW,295,3.0,7.0,91,0.00,,,0.00,weatherlink.com 1.10,2013-01-08 17:57:00,
2013-01-08 13:12:00,27.7,25.0,30.25,NW,309,1.0,7.0,90,0.00,,,0.00,weatherlink.com 1.10,2013-01-08 18:12:00,
2013-01-08 13:27:00,27.2,25.0,30.26,North,355,2.0,8.0,91,0.00,,,0.00,weatherlink.com 1.10,2013-01-08 18:27:00,
2013-01-08 13:42:00,27.1,25.0,30.27,North,5,1.0,8.0,92,0.00,,,0.00,weatherlink.com 1.10,2013-01-08 18:42:00,
2013-01-08 13:57:00,27.3,25.0,30.27,NNW,348,3.0,13.0,91,0.00,,,0.00,weatherlink.com 1.10,2013-01-08 18:57:00,
2013-01-08 14:12:00,27.7,26.0,30.27,NNE,28,6.0,11.0,91,0.00,,,0.00,weatherlink.com 1.10,2013-01-08 19:12:00,
2013-01-08 14:27:00,27.9,26.0,30.28,NNW,344,3.0,9.0,92,0.00,,,0.00,weatherlink.com 1.10,2013-01-08 19:27:00,
2013-01-08 14:42:00,27.9,26.0,30.29,North,9,5.0,9.0,92,0.00,,,0.00,weatherlink.com 1.10,2013-01-08 19:42:00,
2013-01-08 14:57:00,27.7,26.0,30.30,NW,323,2.0,7.0,92,0.00,,,0.00,weatherlink.com 1.10,2013-01-08 19:57:00,
2013-01-08 15:13:00,27.5,26.0,30.30,NE,35,4.0,7.0,93,0.00,,,0.00,weatherlink.com 1.10,2013-01-08 20:13:00,
2013-01-08 15:28:00,27.4,26.0,30.31,North,5,3.0,8.0,93,0.00,,,0.00,weatherlink.com 1.10,2013-01-08 20:28:00,
2013-01-08 15:43:00,27.4,26.0,30.31,North,5,5.0,11.0,93,0.00,,,0.00,weatherlink.com 1.10,2013-01-08 20:43:00,
2013-01-08 15:58:00,27.2,26.0,30.32,NNE,21,5.0,11.0,93,0.00,,,0.00,weatherlink.com 1.10,2013-01-08 20:58:00,
2013-01-08 16:13:00,27.0,25.0,30.33,North,355,3.0,9.0,93,0.00,,,0.00,weatherlink.com 1.10,2013-01-08 21:13:00,
2013-01-08 16:28:00,26.9,25.0,30.33,NNE,28,4.0,8.0,93,0.00,,,0.00,weatherlink.com 1.10,2013-01-08 21:28:00,
2013-01-08 16:43:00,26.9,25.0,30.33,NW,304,2.0,7.0,94,0.00,,,0.00,weatherlink.com 1.10,2013-01-08 21:43:00,
2013-01-08 16:58:00,26.8,25.0,30.33,NNW,331,1.0,10.0,94,0.00,,,0.00,weatherlink.com 1.10,2013-01-08 21:58:00,
2013-01-08 17:13:00,26.8,25.0,30.33,NNW,327,4.0,9.0,94,0.00,,,0.00,weatherlink.com 1.10,2013-01-08 22:13:00,
2013-01-08 17:28:00,26.8,25.0,30.33,North,360,5.0,10.0,94,0.00,,,0.00,weatherlink.com 1.10,2013-01-08 22:28:00,
2013-01-08 17:58:00,26.8,25.0,30.34,NE,42,4.0,10.0,94,0.00,,,0.00,weatherlink.com 1.10,2013-01-08 22:58:00,
2013-01-08 18:13:00,26.8,25.0,30.34,North,355,0.0,5.0,94,0.00,,,0.00,weatherlink.com 1.10,2013-01-08 23:13:00,
2013-01-08 18:28:00,26.7,25.0,30.35,NNE,21,2.0,8.0,94,0.00,,,0.00,weatherlink.com 1.10,2013-01-08 23:28:00,
2013-01-08 18:43:00,26.5,25.0,30.35,NW,311,3.0,7.0,93,0.00,,,0.00,weatherlink.com 1.10,2013-01-08 23:43:00,
2013-01-08 18:58:00,26.1,25.0,30.35,NNW,333,1.0,4.0,94,0.00,,,0.00,weatherlink.com 1.10,2013-01-08 23:58:00,
2013-01-08 19:13:00,25.8,24.0,30.36,ENE,74,0.0,3.0,93,0.00,,,0.00,weatherlink.com 1.10,2013-01-09 00:13:00,
2013-01-08 19:28:00,25.7,24.0,30.36,NNW,340,0.0,4.0,94,0.00,,,0.00,weatherlink.com 1.10,2013-01-09 00:28:00,
2013-01-08 19:43:00,25.8,24.0,30.36,NW,325,2.0,3.0,94,0.00,,,0.00,weatherlink.com 1.10,2013-01-09 00:43:00,
2013-01-08 19:58:00,26.0,25.0,30.36,NNW,348,3.0,7.0,94,0.00,,,0.00,weatherlink.com 1.10,2013-01-09 00:58:00,
2013-01-08 20:13:00,26.2,25.0,30.36,NNE,17,3.0,6.0,94,0.00,,,0.00,weatherlink.com 1.10,2013-01-09 01:13:00,
2013-01-08 20:28:00,26.5,25.0,30.37,NNW,329,1.0,7.0,94,0.00,,,0.00,weatherlink.com 1.10,2013-01-09 01:28:00,
2013-01-08 20:43:00,26.6,25.0,30.37,North,5,5.0,8.0,94,0.00,,,0.00,weatherlink.com 1.10,2013-01-09 01:43:00,
2013-01-08 20:58:00,26.7,25.0,30.37,NNW,348,3.0,9.0,94,0.00,,,0.00,weatherlink.com 1.10,2013-01-09 01:58:00,
2013-01-08 21:13:00,26.7,25.0,30.37,NNW,348,4.0,11.0,94,0.00,,,0.00,weatherlink.com 1.10,2013-01-09 02:13:00,
2013-01-08 21:28:00,26.6,25.0,30.36,North,355,4.0,11.0,94,0.00,,,0.00,weatherlink.com 1.10,2013-01-09 02:28:00,
2013-01-08 21:43:00,26.6,25.0,30.36,NNE,21,8.0,10.0,94,0.00,,,0.00,weatherlink.com 1.10,2013-01-09 02:43:00,
2013-01-08 21:58:00,26.6,25.0,30.36,NNE,25,3.0,7.0,94,0.00,,,0.00,weatherlink.com 1.10,2013-01-09 02:58:00,
2013-01-08 22:28:00,26.6,25.0,30.37,North,11,6.0,9.0,94,0.00,,,0.00,weatherlink.com 1.10,2013-01-09 03:28:00,
2013-01-08 22:43:00,26.5,25.0,30.36,North,351,4.0,8.0,94,0.00,,,0.00,weatherlink.com 1.10,2013-01-09 03:43:00,
2013-01-08 22:58:00,26.5,25.0,30.36,North,9,5.0,9.0,94,0.00,,,0.00,weatherlink.com 1.10,2013-01-09 03:58:00,
2013-01-08 23:13:00,26.5,25.0,30.36,NW,318,4.0,9.0,94,0.00,,,0.00,weatherlink.com 1.10,2013-01-09 04:13:00,
2013-01-08 23:28:00,26.5,25.0,30.36,North,9,4.0,6.0,94,0.00,,,0.00,weatherlink.com 1.10,2013-01-09 04:28:00,
2013-01-08 23:43:00,26.5,25.0,30.37,NW,319,4.0,6.0,94,0.00,,,0.00,weatherlink.com 1.10,2013-01-09 04:43:00,
2013-01-08 23:58:00,26.4,25.0,30.37,NNW,338,2.0,5.0,94,0.00,,,0.00,weatherlink.com 1.10,2013-01-09 04:58:00,